Location: Ripley
(48.3812°N, 115.4473°W)
Time: 01:53:53
(UTC+00:00)

EO-79 - Pass Details

Date: 08 July 2022
Orbit: 588 x 603 km, 98.0° (Epoch: 15 August)

Event Time Altitude Azimuth Distance (km) Brightness Sun altitude
Rises 10:09:17 0° 7° (N) 2,863 ? -12.3°
Reaches altitude 10° 10:11:33 10° 0° (N) 1,957 ? -12.1°
Maximum altitude 10:15:32 40° 291° (WNW) 897 ? -11.8°
Enters shadow 10:18:32 16° 228° (SW) 1,589 ? -11.5°
